weather.gov     
National Weather Service

Terminal Aerodrome Forecast
NWS Homepage
This page is being discontinued on March 12, 2014.
The same data is available at this site. Please update your bookmarks.
Thank you, and we apologize for the inconvenience.
Please send an email to SR-SRH.Webmaster@noaa.gov with any concerns.


Current Version
Previous Version:    01  02  03  04  05  06  07  08  09  10  11  12  13  14  
[Printable]
331
FTUS41 KGYX 011728
TAFPSM
TAF
KPSM 011728Z 0118/0218 15007KT P6SM SCT035
     FM020000 VRB03KT P6SM SKC
     FM020800 00000KT 5SM BR SKC
     FM021300 18005KT P6SM SCT040=


331
FTUS41 KGYX 011728
TAFPSM
TAF
KPSM 011728Z 0118/0218 15007KT P6SM SCT035
     FM020000 VRB03KT P6SM SKC
     FM020800 00000KT 5SM BR SKC
     FM021300 18005KT P6SM SCT040=




U.S. Dept. of Commerce
NOAA National Weather Service
1325 East West Highway
Silver Spring, MD 20910
E-mail: w-nws.webmaster@noaa.gov
Page last modified: May 16, 2007
NATIONAL WEATHER SERVICE: for Safety, for Work, for Fun - FOR LIFE